Location: Cella
(44.7333°N, 10.5667°E)
Time: 10:28:05
(UTC+00:00)

Cosmos 1777 Rocket - Pass Details

Date: 23 June 2021
Orbit: 757 x 776 km, 74.0° (Epoch: 28 July)

Event Time Altitude Azimuth Distance (km) Brightness Sun altitude
Rises 23:04:32 0° 328° (NNW) 3,262 8.3 -21.8°
Reaches altitude 10° 23:07:14 10° 317° (NW) 2,332 7.2 -21.8°
Maximum altitude 23:11:36 27° 261° (W) 1,466 5.4 -21.8°
Enters shadow 23:12:43 25° 240° (WSW) 1,537 5.3 -21.8°
